Regional Weather Roundup
Issued by NWS Raleigh/Durham, NC

Home | Current Version | Previous Version | Text Only | Print | Product List | Glossary On
Versions: 1 2 3 4 5 6 7 8 9 10 11 12 13 14 15 16 17 18 19 20 21 22 23 24 25 26 27 28 29 30 31 32 33 34 35 36 37 38 39 40 41 42 43 44 45 46 47 48 49 50
000
ASUS42 KRAH 040110
RWRRAH
NORTH CAROLINA WEATHER ROUNDUP
NATIONAL WEATHER SERVICE RALEIGH NC
800 PM EST SAT DEC 03 2016

NOTE: "FAIR" INDICATES FEW OR NO CLOUDS BELOW 12,000 FEET WITH NO
SIGNIFICANT WEATHER AND/OR OBSTRUCTIONS TO VISIBILITY.

NCZ001-053-055-056-065-067-040200-
WESTERN NORTH CAROLINA

CITY           SKY/WX    TMP DP  RH WIND       PRES   REMARKS
ASHEVILLE      CLOUDY    45  27  49 N6        30.22S
JEFFERSON      PTCLDY    36  26  67 CALM      30.20S
MORGANTON      MOCLDY    47  34  61 E5        30.29R
HICKORY        PTCLDY    46  30  53 CALM      30.24R
RUTHERFORDTON  MOCLDY    48  32  54 CALM      30.24F
MOUNT AIRY     CLOUDY    43  30  60 N3        30.27R
BOONE          CLOUDY    38  25  58 CALM      30.21R
$$

NCZ021-022-025-041-071-084-088-040200-
CENTRAL NORTH CAROLINA

CITY           SKY/WX    TMP DP  RH WIND       PRES   REMARKS
CHARLOTTE      CLOUDY    48  34  58 NE3       30.26R
GREENSBORO     CLOUDY    46  29  51 CALM      30.24R
WINSTON-SALEM  CLOUDY    45  29  53 CALM      30.26R
RALEIGH-DURHAM CLOUDY    46  30  53 CALM      30.25S
FORT BRAGG     CLOUDY    46  39  79 CALM      30.25R
FAYETTEVILLE   CLOUDY    48  37  65 CALM      30.25S
BURLINGTON     CLOUDY    45  30  55 CALM      30.25R
LAURINBURG     CLOUDY    46  39  76 CALM      30.27R
$$

NCZ011-015-027-028-043-044-047-080-103-040200-
NORTHEASTERN NORTH CAROLINA

CITY           SKY/WX    TMP DP  RH WIND       PRES   REMARKS
ROCKY MT-WILSO CLOUDY    41  36  82 CALM      30.26R
GREENVILLE     CLOUDY    43  36  75 CALM      30.26R
WASHINGTON     CLOUDY    43  33  69 CALM      30.25R
ELIZABETH CITY CLOUDY    42  31  64 NW6       30.23S
MANTEO         CLOUDY    48  32  54 N7        30.23R
CAPE HATTERAS  CLOUDY    50  36  58 VRB5      30.22R
$$

NCZ078-087-090-091-093-098-101-040200-
SOUTHEASTERN NORTH CAROLINA

CITY           SKY/WX    TMP DP  RH WIND       PRES   REMARKS
LUMBERTON      CLOUDY    46  39  76 CALM      30.26R
GOLDSBORO      CLOUDY    45  37  73 CALM      30.24R
KINSTON        CLOUDY    43  37  81 CALM      30.26R
KENANSVILLE    CLOUDY    43  37  81 CALM      30.26R
NEW BERN       CLOUDY    43  36  76 CALM      30.25S
CHERRY POINT   PTCLDY    43  37  79 CALM      30.26R
BEAUFORT       PTCLDY    44  36  73 SW7       30.25R
JACKSONVILLE   CLOUDY    43  41  93 CALM      30.25R
WILMINGTON     PTCLDY    45  39  79 N3        30.25S
$$




USA.gov is the U.S. government's official web portal to all federal, state and local government web resources and services.